Weather History for Redding, CA

Change the Weather History Date:

Thursday, November 10, 2011

  Actual Average Record
Temperature  
Mean Temperature 49 °F -  
Max Temperature 68 °F 65 °F 79 °F (1990)
Min Temperature 30 °F 42 °F 30 °F (2011)
Degree Days  
Heating Degree Days 16    
Month to date heating degree days 164  
Cooling Degree Days 0    
Month to date cooling degree days 0  
Year to date cooling degree days 1701  
Moisture  
Dew Point 32 °F    
Average Humidity 60    
Maximum Humidity 96    
Minimum Humidity 24    
Precipitation  
Precipitation 0.00 in 0.13 in 1.68 in (1999)
Month to date precipitation 0.30 1.24  
Year to date precipitation 23.92 25.11  
Since 1 July precipitation 3.63 4.25  
Sea Level Pressure  
Sea Level Pressure 30.09 in    
Wind  
Wind Speed 0 mph (SE)    
Max Wind Speed 7 mph    
Max Gust Speed 25 mph    
Visibility 9 miles    
Events      
T = Trace of Precipitation, MM = Missing Value Source: NWS Daily Summary

Daily Weather History Graph

Daily Weather History Graph

Search for Another Location

Airport:

Trip Planner

Search our weather history database for the weather conditions in past years. The results will help you decide how hot, cold, wet, or windy it might be!

Date:

Astronomy

Nov. 10, 2011 Rise Set
Actual Time 6:49 AM PST 4:56 PM PST
Civil Twilight 6:20 AM PST 5:25 PM PST
Nautical Twilight 5:47 AM PST 5:57 PM PST
Astronomical Twilight 5:15 AM PST 6:29 PM PST
Moon 4:47 PM PST (11/10) 6:47 AM PST (11/10)
Length of Visible Light 11h 04m
Length of Day
10h 06m
Full, 100% of the Moon is Illuminated
Nov 10
Full
Nov 10
Full
Nov 18
Last Quarter
Nov 24
New
Dec 2
First Quarter

Hourly Weather History & Observations

Time (PST) Temp. Windchill Dew Point Humidity Pressure Visibility Wind Dir Wind Speed Gust Speed Precip Events Conditions
12:53 AM 35.6 °F - 32.0 °F 87% 30.19 in 10.0 mi Calm Calm - N/A   Clear
1:53 AM 34.0 °F - 32.0 °F 92% 30.19 in 8.0 mi Calm Calm - N/A   Clear
2:53 AM 33.1 °F - 30.9 °F 92% 30.19 in 8.0 mi Calm Calm - N/A   Clear
3:53 AM 32.0 °F - 30.2 °F 93% 30.19 in 9.0 mi Calm Calm - N/A   Clear
4:53 AM 30.9 °F - 28.9 °F 92% 30.20 in 6.0 mi Calm Calm - N/A   Clear
5:53 AM 30.0 °F - 28.9 °F 96% 30.19 in 8.0 mi Calm Calm - N/A   Clear
6:53 AM 30.2 °F - 28.4 °F 93% 30.19 in 7.0 mi Calm Calm - N/A   Clear
7:53 AM 33.1 °F - 30.0 °F 89% 30.20 in 6.0 mi Calm Calm - N/A   Clear
8:53 AM 39.0 °F - 35.1 °F 86% 30.20 in 7.0 mi Calm Calm - N/A   Clear
9:53 AM 48.9 °F - 39.0 °F 69% 30.18 in 10.0 mi Calm Calm - N/A   Clear
10:53 AM 55.9 °F - 39.9 °F 55% 30.16 in 10.0 mi Calm Calm - N/A   Clear
11:53 AM 62.1 °F - 37.0 °F 39% 30.11 in 10.0 mi Calm Calm - N/A   Clear
12:53 PM 64.4 °F - 28.4 °F 26% 30.07 in 10.0 mi Calm Calm - N/A   Clear
1:53 PM 66.0 °F - 28.9 °F 25% 30.04 in 10.0 mi Calm Calm - N/A   Clear
2:53 PM 66.0 °F - 28.0 °F 24% 30.03 in 10.0 mi SSE 3.5 mph - N/A   Clear
3:53 PM 64.9 °F - 27.0 °F 24% 30.01 in 10.0 mi Calm Calm - N/A   Clear
4:53 PM 55.9 °F - 30.9 °F 39% 30.01 in 10.0 mi Calm Calm - N/A   Clear
5:53 PM 50.0 °F - 33.1 °F 52% 30.00 in 10.0 mi Calm Calm - N/A   Clear
6:53 PM 48.9 °F - 35.1 °F 59% 30.00 in 10.0 mi North 3.5 mph - N/A   Clear
7:53 PM 45.0 °F 43.5 °F 35.1 °F 68% 29.99 in 10.0 mi SSE 3.5 mph - N/A   Clear
8:53 PM 43.0 °F - 34.0 °F 71% 29.99 in 10.0 mi Calm Calm - N/A   Clear
9:53 PM 41.0 °F - 34.0 °F 76% 29.98 in 10.0 mi Calm Calm - N/A   Clear
10:53 PM 37.9 °F - 33.1 °F 83% 29.97 in 10.0 mi Calm Calm - N/A   Clear
11:53 PM 36.0 °F - 33.1 °F 89% 29.96 in 10.0 mi Calm Calm - N/A   Clear